Location: Degersen
(52.2871°N, 9.5716°E)
Time: 09:51:27
(UTC+00:00)

Cosmos 1666 Rocket - Pass Details

Date: 20 January 2026
Orbit: 598 x 625 km, 82.5° (Epoch: 18 February)

Event Time Altitude Azimuth Distance (km) Brightness Sun altitude
Rises 05:26:43 0° 194° (SSW) 2,865 7.0 -16.7°
Reaches altitude 10° 05:28:55 10° 196° (SSW) 1,970 6.1 -16.3°
Maximum altitude 05:33:17 75° 281° (W) 647 3.4 -15.7°
Drops below altitude 10° 05:37:43 10° 8° (N) 2,002 6.1 -15.0°
Sets 05:39:59 0° 10° (N) 2,917 7.0 -14.7°
